Kuchera_Ratio
0.0 0.0 0.0 0.0 0.0 0.0 0.0 0.0 0.0 0.0 0.0 0.0 0.0 0.0 0.0 0.0 0.0 0.0 0.0 0.0 0.0 0.0 0.0 0.0 0.0 0.0 0.4 0.7 1.3 2.1 3.3 5.2 8.9 4.7 3.5 1.8 2.2 2.3 2.7 1.4 0.4 0.5 1.2
0.0 0.0 0.0 0.0 0.0 0.0 0.0 0.0 0.0 0.0 0.0 0.0 0.0 0.0 0.0 0.0 0.0 0.0 0.0 0.0 0.0 0.0 0.0 0.0 0.5 0.0 1.6 1.3 2.2 2.9 3.9 3.6 7.4 9.0 7.1 5.3 4.3 3.5 4.0 4.4 1.8 0.0 2.6
0.0 0.0 0.0 0.0 0.0 0.0 0.0 0.0 0.0 0.0 0.0 0.0 0.0 0.0 0.0 0.0 0.0 0.0 0.0 0.0 0.0 0.0 0.0 0.0 0.0 0.4 2.4 2.3 3.2 4.4 4.8 4.6 6.0 9.3 9.9 7.9 6.9 5.6 5.6 5.3 5.5 5.4 1.3
0.0 0.0 0.0 0.0 0.0 0.0 0.0 0.0 0.0 0.0 0.0 0.0 0.0 0.0 0.0 0.0 0.0 0.0 0.0 0.0 0.0 0.0 0.0 0.0 0.0 0.3 1.3 1.7 3.6 4.5 5.4 7.0 7.7 9.5 10.5 10.3 9.0 6.8 7.3 9.2 9.1 7.2 7.1
0.0 0.0 0.0 0.0 0.0 0.0 0.0 0.0 0.0 0.0 0.0 0.0 0.0 0.0 0.0 0.0 0.0 0.0 0.0 0.0 0.0 0.0 0.0 0.0 0.0 0.0 0.0 0.1 2.8 3.8 5.8 7.8 9.1 10.6 12.0 11.4 10.9 10.1 9.7 8.3 10.6 8.5 7.6
0.0 0.0 0.0 0.0 0.0 0.0 0.0 0.0 0.0 0.0 0.0 0.0 0.0 0.0 0.0 0.0 0.0 0.0 0.0 0.0 0.0 0.0 0.0 0.0 0.0 0.0 0.0 0.0 0.0 0.0 3.5 7.2 9.3 10.9 11.6 12.1 11.4 10.0 8.6 9.4 10.6 12.2 12.8
0.0 0.0 0.0 0.0 0.0 0.0 0.0 0.0 0.0 0.0 0.0 0.0 0.0 0.0 0.0 0.0 0.0 0.0 0.0 0.0 0.8 0.0 0.0 0.0 0.0 0.0 0.0 0.0 0.0 0.0 0.0 0.0 0.0 6.2 9.1 9.6 7.7 7.9 7.6 9.8 10.2 11.1 11.0
0.0 0.0 0.0 0.0 0.0 0.0 0.0 0.0 0.0 0.4 0.8 1.1 0.7 0.0 0.3 0.0 0.0 0.0 0.0 0.0 0.0 1.2 0.4 0.0 0.0 1.0 1.9 2.6 3.2 3.6 3.6 3.6 3.0 3.5 5.0 6.1 6.9 6.9 7.3 5.2 6.4 9.4 8.3
0.0 0.0 0.0 0.0 0.0 0.2 1.3 1.7 1.1 2.5 1.9 1.9 1.6 2.5 2.8 1.7 0.0 0.0 0.0 0.0 0.2 2.3 1.5 0.8 0.7 1.9 0.0 0.0 5.9 7.4 6.5 6.7 0.0 0.0 0.0 0.0 0.0 0.0 0.0 6.2 10.0 12.6 12.4
0.0 0.0 0.0 0.0 0.9 1.3 1.5 2.1 2.0 3.1 3.1 2.9 3.4 3.3 1.4 2.5 0.0 0.0 0.0 0.0 1.9 1.6 0.6 2.6 0.0 0.8 0.0 0.0 2.1 7.6 7.9 7.0 7.9 7.4 7.2 4.6 1.2 3.9 0.0 6.3 9.7 13.1 12.8
0.0 0.0 0.2 0.5 1.2 1.2 1.6 1.3 2.3 3.8 4.5 5.3 5.5 4.3 4.6 3.7 4.3 0.0 0.0 0.0 2.0 2.8 2.8 4.3 2.5 0.0 0.0 0.0 0.3 4.5 5.3 4.0 5.2 8.0 7.9 7.7 8.1 9.0 9.2 8.7 9.0 11.3 13.2
0.0 1.4 1.7 2.1 1.4 0.0 3.2 3.0 4.6 5.2 5.1 5.7 5.9 5.8 3.9 3.6 0.8 0.1 0.0 0.0 0.0 1.8 3.4 3.7 4.8 0.0 0.0 0.0 0.0 0.0 0.0 0.0 7.4 8.5 9.5 9.1 10.9 10.4 9.7 10.2 9.4 10.1 10.3
2.1 3.1 3.4 3.2 3.0 3.4 4.8 5.5 5.5 5.3 6.6 7.0 6.9 7.0 6.0 3.6 3.6 0.2 0.0 0.0 0.0 0.0 1.9 1.8 1.3 0.5 1.0 1.9 0.0 0.0 0.0 3.8 6.9 9.9 9.5 10.5 9.8 8.9 10.7 11.4 9.7 9.9 10.4
4.2 4.3 3.8 4.4 3.0 2.5 3.9 5.2 7.0 7.0 6.9 5.6 5.2 5.7 4.9 4.3 3.9 4.9 6.8 3.8 0.0 0.0 0.0 1.5 2.2 2.8 3.4 2.5 1.4 0.0 3.9 4.7 7.5 9.1 10.0 9.9 10.8 12.1 12.4 12.1 12.6 11.2 12.7
4.9 4.6 5.0 5.0 5.7 5.2 4.9 5.3 5.8 3.6 1.6 3.7 3.2 3.2 6.2 6.1 3.1 0.0 1.5 4.9 6.5 4.5 2.5 5.8 6.5 7.6 8.6 7.8 7.8 6.9 6.4 7.6 8.7 9.6 11.3 12.2 11.5 11.8 12.2 12.2 12.3 12.4 13.9
6.7 6.0 5.6 5.3 6.0 6.1 7.2 6.7 0.0 0.0 0.0 0.0 0.0 0.0 1.4 0.3 0.0 0.0 0.0 0.0 1.0 1.3 6.0 8.7 8.5 8.4 9.1 9.1 8.7 9.0 9.2 7.7 10.1 11.3 12.2 12.6 13.0 13.4 13.2 12.9 12.6 13.5 14.5
7.4 6.9 7.3 5.6 7.1 7.7 7.8 6.4 7.2 2.3 0.0 0.0 0.0 0.0 0.0 0.6 0.5 0.2 0.0 1.1 1.7 1.9 7.9 9.1 9.8 9.5 9.6 9.7 9.7 9.9 11.1 10.9 10.4 11.6 12.6 12.9 13.2 13.7 12.9 13.8 13.4 13.6 14.2
7.0 3.4 6.8 7.9 8.0 8.2 7.3 6.9 6.1 7.1 7.7 5.4 0.0 0.2 0.0 1.0 1.3 0.9 0.0 1.5 7.3 5.6 8.2 9.4 10.4 10.1 10.7 11.4 11.0 11.1 11.4 11.8 12.3 12.5 12.9 13.1 13.7 14.1 14.8 14.6 14.4 14.9 14.9
8.2 8.3 8.2 5.8 5.7 4.1 3.9 4.7 5.9 6.7 6.8 6.8 5.2 2.3 0.7 0.8 1.1 1.0 1.5 5.3 8.3 8.7 7.9 9.7 10.0 10.3 10.9 11.4 10.8 11.8 12.0 12.2 12.6 13.1 13.2 13.7 14.2 14.6 15.3 14.8 14.8 12.6 13.1
8.6 4.3 2.0 2.8 4.2 5.1 4.7 5.8 6.3 6.6 6.9 7.5 7.4 7.1 4.6 6.5 9.8 9.6 7.3 8.1 8.0 8.1 8.7 9.3 9.7 9.6 10.3 11.4 12.1 12.3 12.4 12.8 13.1 13.5 13.7 14.1 14.2 14.7 15.3 15.4 15.0 15.3 16.4
8.0 6.7 2.6 3.8 5.2 5.3 5.3 6.1 5.8 6.7 7.1 7.3 6.9 5.5 1.0 5.8 8.1 8.8 9.1 8.8 8.1 7.9 8.6 8.7 9.2 9.9 10.3 12.0 12.6 12.5 12.6 12.9 13.5 13.6 13.9 14.5 14.6 15.5 15.2 15.3 15.4 15.8 16.3
8.2 8.1 7.4 6.0 5.1 5.7 5.8 5.3 6.1 6.4 6.4 7.3 6.7 5.2 2.3 6.0 7.6 8.7 8.1 8.0 7.6 7.1 7.5 8.2 8.6 10.1 11.0 12.3 12.4 12.8 12.9 13.4 13.7 13.9 14.5 14.6 14.9 14.4 14.3 15.6 16.3 16.3 16.3
8.7 8.1 5.4 4.8 4.9 3.9 5.2 5.8 6.0 6.4 6.8 6.8 6.8 7.3 7.6 7.9 8.2 9.5 9.2 8.3 9.1 8.1 8.0 8.3 9.4 11.7 12.1 11.6 11.6 11.9 12.8 13.1 13.3 13.5 14.6 14.9 15.3 14.7 15.5 16.6 17.1 16.8 16.7
7.7 5.6 5.1 5.5 6.0 6.2 6.5 7.1 6.9 5.9 6.8 7.1 7.1 7.5 8.5 8.7 8.1 9.1 9.0 8.9 10.3 10.5 11.1 10.0 11.0 11.5 11.8 12.2 12.3 12.5 12.6 12.6 12.9 13.4 13.9 14.6 15.3 15.1 16.2 16.8 16.6 16.1 16.4
5.0 5.1 5.1 6.4 7.1 7.4 7.1 7.2 7.1 6.9 7.3 7.8 7.5 8.1 9.3 9.0 8.9 9.1 9.5 9.9 11.4 12.3 12.4 12.5 12.3 12.3 12.3 12.3 12.5 12.7 12.9 10.2 13.6 13.8 14.3 14.7 15.3 15.9 16.7 16.2 16.1 15.8 15.8
5.1 5.2 6.7 7.9 8.5 8.5 8.8 9.0 9.2 9.6 10.2 8.5 7.5 9.3 10.0 9.7 9.5 10.1 11.8 12.3 12.5 12.9 13.1 13.4 13.2 12.7 12.7 12.7 13.0 13.2 9.4 8.1 11.3 10.1 14.6 15.5 15.9 16.4 15.6 15.7 15.8 15.6 15.3